Location: Arbocrest Acres
(39.2134°N, 84.4144°W)
Time: 09:31:06
(UTC+00:00)

X-37B - Pass Details

Date: 05 December 2022
Orbit: 277 x 277 km, 45.0° (Epoch: 01 November)

Event Time Altitude Azimuth Distance (km) Brightness Sun altitude
Rises 23:27:13 0° 210° (SSW) 1,900 4.9 -13.7°
Reaches altitude 10° 23:29:28 10° 189° (S) 1,092 3.2 -14.2°
Enters shadow 23:31:11 17° 144° (SE) 797 2.0 -14.5°
